• Join FlightAware (Why Join?)
  • Login
  • US Flag 
11:48PM EDT


 

Airport Tracker/Info


-or-


 

Live Flight TrackerFlight Track Log ✈ ASH2638 ✈ 18-Apr-2013 ✈ KPHX - KONT

Flight Track Log - Related Links

Times and Time Zones

All times are in EDT time to prevent confusion due to time zone crossing. See the ASH2638 flight status page for this flight to view local times or setup timezone preferences in your user account.

Time Position Orientation Groundspeed Altitude Reporting Facility
EDT Latitude Longitude Course Direction KTS MPH feet Rate Location/Type
05:47PM 33.4333 -112.0333 273° West 176 203 1,900  Level Phoenix TRACON
05:48PM 33.4114 -112.1022 249° West 211 243 4,900 2,580 Climbing Albuquerque Center
05:49PM 33.4058 -112.1731 265° West 218 251 7,700 2,640 Climbing Albuquerque Center
05:50PM 33.4363 -112.4559 273° West  Level FlightAware Approximate
05:50PM 33.4108 -112.2511 274° West 233 268 10,400  Level Albuquerque Center
05:51PM 33.4410 -112.5698 273° West  Level FlightAware Approximate
05:51PM 33.4192 -112.3519 276° West 260 299 12,500  Level Albuquerque Center
05:52PM 33.4455 -112.6836 273° West  Level FlightAware Approximate
05:52PM 33.4272 -112.4556 275° West 307 353 14,200  Level Albuquerque Center
05:53PM 33.4350 -112.5681 275° West 335 386 16,300 2,040 Climbing Albuquerque Center
05:54PM 33.4431 -112.6836 275° West 342 394 18,400 1,980 Climbing Albuquerque Center
05:55PM 33.4525 -112.8008 276° West 348 400 20,500 1,980 Climbing Albuquerque Center
05:56PM 33.4714 -112.9169 281° West 352 405 22,500 1,800 Climbing Albuquerque Center
05:57PM 33.4994 -113.0569 284° West 357 411 24,300 1,500 Climbing Albuquerque Center
05:58PM 33.5219 -113.1753 283° West 364 419 25,700 1,320 Climbing Albuquerque Center
05:59PM 33.5456 -113.3011 283° West 381 438 27,100 1,200 Climbing Albuquerque Center
06:00PM 33.5697 -113.4281 283° West 388 447 28,200 1,140 Climbing Albuquerque Center
06:01PM 33.5939 -113.5581 283° West 399 459 29,500 1,200 Climbing Albuquerque Center
06:02PM 33.6192 -113.6925 283° West 402 463 30,700 1,020 Climbing Albuquerque Center
06:03PM 33.6431 -113.8244 282° West 405 466 31,700 600 Climbing Albuquerque Center
06:04PM 33.6736 -113.9867 283° West 413 475 32,000 120 Climbing Albuquerque Center
06:05PM 33.6972 -114.1208 282° West 412 474 32,000  Level Albuquerque Center
06:06PM 33.7200 -114.2469 282° West 407 468 32,000  Level Albuquerque Center
06:07PM 33.7461 -114.3883 283° West 397 457 32,000  Level Los Angeles Center
06:08PM 33.7703 -114.5169 283° West 396 456 32,000  Level Los Angeles Center
06:10PM 33.7803 -114.6469 275° West 393 452 32,000  Level Los Angeles Center
06:11PM 33.7872 -114.7761 274° West 391 450 32,000  Level Los Angeles Center
06:12PM 33.7961 -114.9042 275° West 386 444 32,000  Level Los Angeles Center
06:13PM 33.8039 -115.0594 273° West 389 448 32,000 -360 Level Los Angeles Center
06:14PM 33.8094 -115.1883 273° West 389 448 31,300 -1,020 Descending Los Angeles Center
06:15PM 33.8186 -115.3272 275° West 414 476 30,000 -1,260 Descending Los Angeles Center
06:16PM 33.8253 -115.4694 273° West 427 491 28,700 -1,320 Descending Los Angeles Center
06:17PM 33.8328 -115.6136 274° West 432 497 27,300 -1,260 Descending Los Angeles Center
06:18PM 33.8406 -115.7544 274° West 426 490 26,100 -1,260 Descending Los Angeles Center
06:19PM 33.8472 -115.9203 273° West 418 481 24,700 -1,380 Descending Los Angeles Center
06:20PM 33.8544 -116.0586 274° West 417 480 23,300 -1,440 Descending Los Angeles Center
06:21PM 33.8611 -116.1956 273° West 414 476 21,800 -1,620 Descending Los Angeles Center
06:22PM 33.8661 -116.3300 273° West 406 467 20,000 -1,560 Descending Los Angeles Center
06:23PM 33.8719 -116.4681 273° West 414 476 18,600 -1,260 Descending Los Angeles Center
06:24PM 33.8792 -116.6203 273° West 386 444 17,400 -1,560 Descending Los Angeles Center
06:25PM 33.8853 -116.7450 273° West 378 435 15,400 -1,860 Descending Los Angeles Center
06:26PM 33.8942 -116.8644 275° West 364 419 13,600 -1,740 Descending Los Angeles Center
06:27PM 33.9311 -116.9775 292° West 367 422 11,900 -1,680 Descending Los Angeles Center
06:28PM 33.9667 -117.0667 296° West 335 386 10,700 -1,440 Descending Southern California TRACON
06:29PM 34.0000 -117.1667 292° West 284 327 9,300 -1,440 Descending Southern California TRACON
06:30PM 34.0167 -117.2500 284° West 284 327 7,700 -1,860 Descending Southern California TRACON
06:31PM 34.0500 -117.3500 292° West 270 311 5,600 -2,280 Descending Southern California TRACON
06:32PM 34.0500 -117.4333 270° West 266 306 3,200 -1,740 Descending Southern California TRACON
06:33PM 34.0500 -117.5167 270° West 197 227 2,100 -900 Descending Southern California TRACON
06:34PM 34.0500 -117.5667 270° West 159 183 1,400 -720 Descending Southern California TRACON